TimeAKDT,TemperatureF,Dew PointF,Humidity,Sea Level PressureIn,VisibilityMPH,Wind Direction,Wind SpeedMPH,Gust SpeedMPH,PrecipitationIn,Events,Conditions,WindDirDegrees,DateUTC
12:09 AM,19.4,17.6,93,30.18,1.0,SW,8.1,-,N/A,,Mist,230,2013-10-23 08:09:00
12:17 AM,19.4,17.6,93,30.18,0.2,WSW,6.9,-,N/A,Fog,Light Freezing Fog,240,2013-10-23 08:17:00
12:31 AM,19.4,17.6,93,30.18,0.5,West,6.9,-,N/A,Fog,Light Freezing Fog,260,2013-10-23 08:31:00
12:50 AM,19.4,17.6,93,30.17,0.2,West,8.1,-,N/A,Fog,Light Freezing Fog,260,2013-10-23 08:50:00
12:53 AM,19.0,18.0,96,30.18,0.2,West,8.1,-,N/A,Fog,Light Freezing Fog,260,2013-10-23 08:53:00
1:14 AM,19.4,17.6,93,30.17,0.5,WSW,8.1,-,N/A,Fog,Light Freezing Fog,250,2013-10-23 09:14:00
1:53 AM,19.0,17.1,92,30.18,0.5,West,8.1,-,N/A,Fog,Light Freezing Fog,260,2013-10-23 09:53:00
2:15 AM,19.4,17.6,93,30.17,1.0,WSW,6.9,-,N/A,,Overcast,250,2013-10-23 10:15:00
2:35 AM,19.4,17.6,93,30.17,3.0,WSW,5.8,-,N/A,,Overcast,250,2013-10-23 10:35:00
2:51 AM,19.4,17.6,93,30.17,1.2,West,6.9,-,N/A,,Overcast,260,2013-10-23 10:51:00
2:53 AM,19.9,18.0,92,30.18,1.0,West,5.8,-,N/A,,Overcast,260,2013-10-23 10:53:00
3:53 AM,18.0,17.1,96,30.18,0.5,SW,5.8,-,N/A,Fog,Light Freezing Fog,230,2013-10-23 11:53:00
4:53 AM,17.1,16.0,96,30.17,3.0,WSW,6.9,-,N/A,,Overcast,240,2013-10-23 12:53:00
5:53 AM,18.0,16.0,92,30.17,10.0,SW,8.1,-,N/A,,Overcast,230,2013-10-23 13:53:00
6:53 AM,19.0,17.1,92,30.16,10.0,West,6.9,-,N/A,,Overcast,260,2013-10-23 14:53:00
7:53 AM,19.0,17.1,92,30.16,10.0,WSW,8.1,-,N/A,,Overcast,240,2013-10-23 15:53:00
8:53 AM,19.9,18.0,92,30.15,10.0,WSW,8.1,-,N/A,,Overcast,250,2013-10-23 16:53:00
9:53 AM,21.0,19.0,92,30.15,10.0,WSW,6.9,-,N/A,,Overcast,250,2013-10-23 17:53:00
10:53 AM,21.0,19.0,92,30.15,10.0,West,8.1,-,N/A,,Overcast,280,2013-10-23 18:53:00
11:53 AM,21.9,19.0,89,30.14,10.0,WSW,5.8,-,N/A,,Overcast,250,2013-10-23 19:53:00
12:53 PM,21.9,19.9,92,30.14,10.0,WSW,8.1,-,N/A,,Overcast,250,2013-10-23 20:53:00
1:53 PM,23.0,21.0,92,30.12,10.0,WSW,6.9,-,N/A,,Overcast,240,2013-10-23 21:53:00
2:53 PM,23.0,21.0,92,30.12,10.0,SW,5.8,-,N/A,,Overcast,230,2013-10-23 22:53:00
3:53 PM,24.1,21.0,88,30.11,10.0,SW,5.8,-,N/A,,Overcast,230,2013-10-23 23:53:00
4:53 PM,23.0,21.0,92,30.10,10.0,SW,6.9,-,N/A,,Overcast,220,2013-10-24 00:53:00
5:53 PM,24.1,21.9,91,30.08,10.0,SSW,8.1,-,N/A,,Overcast,200,2013-10-24 01:53:00
6:53 PM,24.1,21.9,91,30.07,10.0,WSW,9.2,-,N/A,,Overcast,240,2013-10-24 02:53:00
7:53 PM,25.0,23.0,92,30.07,6.0,West,11.5,-,0.00,Snow,Light Snow,260,2013-10-24 03:53:00
8:03 PM,24.8,23.0,93,30.06,1.8,WSW,12.7,-,0.00,Snow,Light Snow,250,2013-10-24 04:03:00
8:13 PM,24.8,21.2,86,30.06,3.0,WSW,12.7,-,0.00,Snow,Light Snow,250,2013-10-24 04:13:00
8:24 PM,24.8,21.2,86,30.06,3.0,West,11.5,-,0.00,Snow,Light Snow,260,2013-10-24 04:24:00
8:31 PM,24.8,21.2,86,30.06,2.5,WSW,11.5,-,0.00,Snow,Light Snow,250,2013-10-24 04:31:00
8:38 PM,24.8,21.2,86,30.06,5.0,WSW,11.5,-,0.00,Snow,Light Snow,250,2013-10-24 04:38:00
8:53 PM,24.1,21.9,91,30.07,4.0,WSW,11.5,-,0.00,Snow,Light Snow,250,2013-10-24 04:53:00
9:23 PM,24.8,21.2,86,30.06,2.5,West,10.4,-,0.00,Snow,Light Snow,260,2013-10-24 05:23:00
9:53 PM,24.1,21.9,91,30.07,2.0,West,10.4,-,0.00,Snow,Light Snow,270,2013-10-24 05:53:00
10:10 PM,24.8,23.0,93,30.06,2.5,West,9.2,-,0.00,Snow,Light Snow,270,2013-10-24 06:10:00
10:17 PM,24.8,23.0,93,30.07,1.8,NW,9.2,-,0.00,Snow,Light Snow,310,2013-10-24 06:17:00
10:53 PM,24.1,21.9,91,30.08,3.0,NW,11.5,-,0.00,,Overcast,310,2013-10-24 06:53:00
11:53 PM,23.0,21.0,92,30.08,3.0,WNW,10.4,-,0.00,Snow,Light Snow,300,2013-10-24 07:53:00